Home   Weather   Talladega   Past weeks
Flag for USA

Past Weather in Talladega, Alabama, USA — Yesterday and Last 2 Weeks

Now
80 °F

Scattered clouds.


Feels Like: 83 °F
Forecast: 81 / 70 °F
Wind: 14 mph from North

Location: Talladega Municipal Airport

Current Time: Jul 23, 2019 at 3:01:16 pm

Latest Report: Jul 23, 2019 at 2:15 pm


Visibility: 10 mi

Pressure: 29.93 "Hg

Humidity: 69%

Dew Point: 69 °F

Location of TalladegaLocation

Past Weather in Talladega — Graph

°F

Talladega Temperature Yesterday

Maximum temperature yesterday: 90 °F (at 3:55 pm)
Minimum temperature yesterday: 72 °F (at 5:35 am)
Average temperature yesterday: 80 °F

High & Low Weather Summary for the Past Weeks

 TemperatureHumidityPressure
High95 °F (Jul 9, 3:35 pm)100% (Jul 9, 4:55 am)30.22 "Hg (Jul 9, 4:55 am)
Low69 °F (Jul 15, 5:35 am)42% (Jul 16, 4:35 pm)29.85 "Hg (Jul 11, 5:55 pm)
Average80 °F82%30.04 "Hg
* Reported Jul 8 1:15 pm — Jul 23 1:55 pm, Talladega. Weather by CustomWeather, © 2019

Note: Actual official high and low records may vary slightly from our data, if they occured in-between our weather recording intervals... More about our weather records

Advertising

Talladega Weather History for the Previous 24 Hours

Scroll right to see more
 ConditionsComfort  
Time TempWeatherWind HumidityBarometerVisibility
1:55 pm
Tue, Jul 23
81 °FBroken clouds.15 mph70%29.94 "Hg10 mi
1:35 pm78 °FMostly cloudy.15 mph76%29.94 "Hg10 mi
1:15 pm78 °FMore clouds than sun.13 mph77%29.94 "Hg10 mi
12:55 pm78 °FMostly cloudy.12 mph79%29.94 "Hg10 mi
12:35 pm77 °FCloudy.8 mph86%29.94 "Hg10 mi
12:15 pm76 °FRain. Broken clouds.14 mph91%29.94 "Hg10 mi
11:55 am82 °FPartly sunny.7 mph73%29.93 "Hg10 mi
11:35 am82 °FMore clouds than sun.8 mph75%29.94 "Hg10 mi
11:15 am80 °FBroken clouds.5 mph76%29.94 "Hg10 mi
10:55 am80 °FBroken clouds.6 mph78%29.94 "Hg10 mi
10:35 am79 °FBroken clouds.5 mph79%29.95 "Hg10 mi
10:15 am78 °FMore clouds than sun.6 mph82%29.95 "Hg10 mi
9:55 am78 °FBroken clouds.6 mph86%29.95 "Hg10 mi
9:35 am77 °FBroken clouds.7 mph88%29.95 "Hg10 mi
9:15 am76 °FBroken clouds.6 mph93%29.95 "Hg10 mi
8:35 am75 °FCloudy.7 mph96%29.95 "Hg10 mi
8:15 am75 °FMore clouds than sun.5 mph97%29.95 "Hg10 mi
7:55 am74 °FOvercast.3 mph98%29.94 "Hg10 mi
7:35 am74 °FDrizzle. More clouds than sun.5 mph98%29.95 "Hg10 mi
7:15 am75 °FLight rain. Broken clouds.5 mph97%29.94 "Hg7 mi
6:55 am75 °FScattered clouds.3 mph97%29.94 "Hg10 mi
6:35 am75 °FScattered clouds.3 mph97%29.93 "Hg10 mi
6:15 am75 °FMore clouds than sun.3 mph99%29.93 "Hg10 mi
5:55 am74 °FMostly cloudy.No wind100%29.93 "Hg10 mi
5:35 am74 °FOvercast.No wind99%29.93 "Hg10 mi
5:15 am74 °FPassing clouds.3 mph99%29.93 "Hg10 mi
4:55 am74 °FMostly cloudy.No wind99%29.92 "Hg10 mi
4:35 am74 °FPassing clouds.No wind100%29.92 "Hg10 mi
4:15 am74 °FPartly cloudy.No wind98%29.91 "Hg10 mi
3:35 am74 °FPartly cloudy.No wind100%29.91 "Hg10 mi
3:15 am73 °FPassing clouds.No wind100%29.92 "Hg10 mi
2:55 am74 °FPassing clouds.No wind100%29.92 "Hg10 mi
2:35 am74 °FPassing clouds.No wind100%29.92 "Hg10 mi
2:15 am74 °FPassing clouds.No wind100%29.92 "Hg10 mi
1:55 am74 °FClear.No wind99%29.92 "Hg10 mi
1:35 am74 °FClear.No wind100%29.92 "Hg10 mi
1:15 am75 °FClear.No wind98%29.92 "Hg10 mi
12:55 am75 °FPartly cloudy.No wind99%29.93 "Hg10 mi
12:35 am74 °FPartly cloudy.No wind100%29.94 "Hg10 mi
12:15 am74 °FPartly cloudy.No wind100%29.94 "Hg10 mi
11:55 pm
Mon, Jul 22
75 °FPartly cloudy.No wind98%29.95 "Hg10 mi
11:35 pm74 °FPassing clouds.No wind100%29.95 "Hg10 mi
11:15 pm75 °FClear.No wind100%29.96 "Hg10 mi
10:55 pm75 °FPassing clouds.5 mph100%29.96 "Hg10 mi
10:35 pm75 °FPassing clouds.No wind96%29.96 "Hg10 mi
10:15 pm76 °FLight rain. Passing clouds.No wind96%29.96 "Hg10 mi
9:55 pm76 °FLight rain. Mostly cloudy.5 mph97%29.97 "Hg10 mi
9:35 pm76 °FLight rain. Overcast.7 mph96%29.97 "Hg10 mi
9:15 pm80 °FLight rain. Overcast.8 mph79%29.97 "Hg10 mi
8:55 pm82 °FMostly cloudy.8 mph75%29.95 "Hg10 mi
8:35 pm82 °FOvercast.3 mph76%29.93 "Hg10 mi
8:15 pm83 °FPassing clouds.3 mph71%29.93 "Hg10 mi
7:55 pm83 °FPassing clouds.No wind72%29.93 "Hg10 mi
7:35 pm83 °FScattered clouds.5 mph70%29.93 "Hg10 mi
6:55 pm86 °FScattered clouds.5 mph62%29.92 "Hg10 mi
6:35 pm87 °FOvercast.6 mph62%29.91 "Hg10 mi
6:15 pm86 °FPartly sunny.5 mph61%29.92 "Hg10 mi
5:55 pm86 °FScattered clouds.7 mph60%29.92 "Hg10 mi
5:35 pm89 °FScattered clouds.6 mph57%29.92 "Hg10 mi
5:15 pm89 °FSunny.8 mph56%29.92 "Hg10 mi
4:55 pm90 °FScattered clouds.8 mph55%29.93 "Hg10 mi
4:35 pm89 °FScattered clouds.8 mph54%29.93 "Hg10 mi
4:15 pm90 °FBroken clouds.8 mph53%29.94 "Hg10 mi
3:55 pm90 °FBroken clouds.10 mph52%29.94 "Hg10 mi
3:35 pm89 °FBroken clouds.8 mph54%29.95 "Hg10 mi
3:15 pm88 °FPartly sunny.6 mph58%29.95 "Hg10 mi
Weather by CustomWeather, © 2019

See weather overview